Location: Kapla
(46.2483°N, 15.0094°E)
Time: 18:29:51
(UTC+00:00)

Okean-O - Pass Details

Date: 03 March 2021
Orbit: 639 x 640 km, 98.2° (Epoch: 15 April)

Event Time Altitude Azimuth Distance (km) Brightness Sun altitude
Rises 18:21:18 0° 187° (S) 2,932 6.0 -16.7°
Reaches altitude 10° 18:23:39 10° 197° (SSW) 2,028 5.3 -17.1°
Maximum altitude 18:27:41 35° 263° (W) 1,046 4.3 -17.8°
Drops below altitude 10° 18:31:46 10° 329° (NNW) 2,043 5.8 -18.5°
Sets 18:34:09 0° 339° (NNW) 2,957 6.5 -18.9°
